Probability
0 0 0 0 0 0 0 0 0 0 0 0 0 0 0 0 0 0 0 0 0 0 0 0 0 0 0 0 0 0 0 0 0 0 0 0 0 0 0 0 0 0 0
0 0 0 0 0 0 0 0 0 0 0 0 0 0 0 0 0 0 0 0 0 0 0 0 0 0 0 0 0 0 0 0 0 0 0 0 0 0 0 0 0 0 0
0 0 0 0 0 0 0 0 0 0 0 0 0 0 0 0 0 0 0 0 0 0 0 0 0 0 0 0 0 0 0 0 0 0 0 0 0 0 0 0 0 0 0
0 0 0 0 0 0 0 0 0 0 0 0 0 1 0 0 0 0 0 0 0 0 0 0 0 0 0 0 0 0 0 0 0 0 0 0 0 0 0 0 0 0 0
0 0 0 0 0 0 0 0 0 0 0 0 0 0 0 0 0 0 0 0 0 0 0 0 0 0 0 0 0 0 0 0 0 0 0 0 0 0 0 0 0 0 0
0 0 0 0 0 0 0 0 0 0 0 0 0 0 0 0 0 0 0 0 0 0 0 0 0 0 0 0 0 0 0 0 0 0 0 0 0 0 0 0 0 0 0
0 0 0 0 0 0 0 0 0 0 0 0 0 0 0 0 0 0 0 0 0 0 0 0 0 0 0 0 0 0 0 0 0 0 0 0 0 0 0 0 0 0 0
0 0 0 0 0 0 0 0 0 0 0 0 0 0 0 0 0 0 0 0 0 0 0 0 0 0 0 0 0 0 0 0 0 0 0 0 0 0 0 0 0 0 0
0 0 0 0 0 0 0 0 0 0 0 0 0 0 0 0 0 0 0 0 0 0 0 0 0 0 0 0 0 0 0 0 0 0 0 0 0 0 0 0 0 0 0
0 0 0 0 0 0 0 0 0 0 0 0 0 0 0 0 0 0 0 0 0 0 0 0 0 0 0 0 0 0 0 0 0 0 0 0 0 0 0 0 0 0 0
0 0 0 0 0 0 0 0 0 0 0 0 0 0 0 0 0 0 0 0 0 0 0 0 0 0 0 0 0 0 0 0 0 0 0 0 0 0 0 0 0 0 0
0 0 0 0 0 0 0 0 0 0 0 0 0 0 0 0 0 0 0 0 0 0 0 0 0 0 0 0 0 0 0 0 0 0 0 0 0 0 0 0 0 0 0
0 0 0 0 0 0 0 0 0 0 0 0 0 0 0 0 0 0 0 0 0 0 0 0 0 0 0 0 0 0 0 0 0 0 0 0 0 0 0 0 0 0 0
0 0 0 0 0 0 0 0 0 0 0 0 0 0 0 0 0 0 0 0 0 0 0 0 0 0 0 0 0 0 0 0 0 0 0 0 0 0 0 0 0 0 0
0 0 0 0 0 0 0 0 0 0 0 0 0 0 0 0 0 0 0 0 0 0 0 0 0 0 0 0 0 0 0 0 0 0 0 0 0 0 0 0 0 0 0
0 0 0 0 0 0 0 0 0 0 0 0 0 0 0 0 0 0 0 0 0 0 0 0 0 0 0 0 0 0 0 0 0 0 0 0 0 0 0 0 0 0 0
0 0 0 0 0 0 0 0 0 0 0 0 0 0 0 0 0 0 0 0 0 0 0 0 0 0 0 0 0 0 0 0 0 0 0 0 0 0 0 0 0 0 0
0 0 0 0 0 0 0 0 0 0 0 0 0 0 0 0 0 0 0 0 0 0 0 0 0 0 0 0 0 0 0 0 0 0 0 0 0 0 0 0 0 0 0
0 0 0 0 0 0 0 0 0 0 0 0 0 0 0 0 0 0 0 0 0 0 0 0 0 0 0 0 0 0 0 0 0 0 0 0 0 0 0 0 0 0 0
0 0 0 0 0 0 0 0 0 0 0 0 0 0 0 0 0 0 0 0 0 0 0 0 0 0 0 0 0 0 0 0 0 0 0 0 0 0 0 0 0 0 0
0 0 0 0 0 0 0 0 0 0 0 0 0 0 0 0 0 0 0 0 0 0 0 0 0 0 0 0 0 0 0 0 0 0 0 0 0 0 0 0 0 0 0
0 0 0 0 0 0 0 0 0 0 0 0 0 0 0 0 0 0 0 0 0 0 0 0 0 0 0 0 0 0 0 0 0 0 0 0 0 0 0 0 0 0 0
0 0 0 0 0 0 0 0 0 0 0 0 0 0 0 0 0 0 0 0 0 0 0 0 0 0 0 0 0 0 0 0 0 0 0 0 0 0 0 0 0 0 0
0 0 0 0 0 0 0 0 0 0 0 0 0 0 0 0 0 0 0 0 0 0 0 0 0 0 0 0 0 0 0 0 0 0 0 0 0 0 0 0 0 0 0
0 0 0 0 0 0 0 0 0 0 0 0 0 0 0 0 0 0 0 0 0 0 0 0 0 0 0 0 0 0 0 0 0 0 0 0 0 0 0 0 0 0 0
0 0 0 0 0 0 0 0 0 0 0 0 0 0 0 0 0 0 0 0 0 0 0 0 0 0 0 0 0 0 0 0 0 0 0 0 0 0 0 0 0 0 0
Wind_Speed
4 4 4 4 4 4 3 3 3 3 3 4 4 3 3 3 3 3 2 2 2 2 2 2 2 2 1 2 1 1 2 2 5 4 2 2 2 3 3 3 3 3 4
4 4 4 4 3 4 4 3 3 4 3 4 4 3 3 3 3 4 3 3 3 3 3 3 3 2 2 2 2 2 2 2 3 6 4 3 3 3 3 3 4 4 3
4 4 4 4 4 4 4 3 3 3 3 3 4 4 4 4 4 4 4 3 4 4 3 4 3 3 3 2 2 3 3 3 3 4 5 3 3 2 3 3 3 3 4
4 4 4 4 4 4 3 3 3 4 4 4 4 4 4 4 4 3 3 3 3 3 4 4 4 4 4 3 3 3 3 3 3 3 4 3 3 3 2 3 4 3 3
4 4 5 4 3 3 3 3 3 3 4 4 3 3 3 3 3 3 4 4 4 3 3 3 4 4 5 4 3 3 3 3 3 3 4 4 4 3 3 3 4 4 4
4 5 4 3 3 3 4 3 3 3 3 3 4 4 3 3 5 6 4 3 3 3 3 3 3 3 4 6 6 6 5 4 4 4 4 5 6 4 3 3 3 4 5
4 4 4 4 4 4 3 4 4 4 3 3 4 4 4 5 6 6 6 3 3 3 3 3 3 3 3 3 5 6 6 8 8 5 6 7 6 5 4 4 4 5 6
3 3 3 4 4 3 4 4 4 3 3 3 3 4 4 4 6 6 5 3 3 3 3 3 3 3 4 3 3 4 5 6 7 6 6 6 5 4 4 5 5 5 5
3 3 3 4 4 3 4 4 3 3 3 3 3 3 4 4 6 6 4 2 3 3 3 3 4 4 6 5 4 5 6 6 7 8 9 7 8 8 5 2 3 3 5
3 3 3 3 4 4 4 3 2 2 3 2 2 3 3 3 5 6 5 2 3 3 3 3 4 5 6 6 4 4 6 6 4 5 5 5 5 5 6 4 3 4 4
1 1 1 2 3 3 3 2 2 2 2 2 2 2 2 3 4 6 5 3 3 3 3 3 4 7 8 8 6 5 7 6 4 4 3 3 3 3 3 3 3 4 5
1 1 1 2 2 2 3 2 2 3 2 2 2 2 2 2 3 5 6 6 4 4 4 3 4 7 8 8 6 6 7 5 2 3 3 3 3 3 3 3 4 4 5
1 1 1 1 1 2 3 3 2 2 3 2 2 3 3 2 3 5 6 7 6 4 4 5 6 7 6 5 6 6 4 2 2 3 4 4 3 3 3 3 3 4 5
1 1 1 1 1 1 1 2 3 3 3 3 3 4 3 2 2 2 3 3 4 4 3 3 5 5 5 4 3 3 3 2 3 4 4 3 3 2 3 3 3 3 4
1 1 1 2 2 2 2 2 3 4 5 5 4 4 4 4 5 5 3 3 3 3 2 1 1 2 2 2 2 2 2 2 3 3 3 3 3 3 3 3 3 3 4
1 1 1 2 2 2 2 2 4 4 5 6 6 4 4 6 6 6 7 6 6 4 2 2 3 3 4 4 3 3 3 4 4 3 4 4 4 4 4 3 3 4 5
2 2 2 2 2 2 2 2 2 3 5 6 7 7 6 6 6 6 6 6 5 4 3 4 4 4 4 4 4 4 4 4 4 4 4 4 4 4 4 5 4 5 5
2 2 2 2 2 2 2 3 3 3 3 3 5 7 7 7 7 6 6 4 3 4 4 4 4 4 4 4 4 4 4 3 3 4 4 4 4 4 5 5 5 6 6
2 2 2 2 2 2 2 2 2 3 3 3 2 3 4 5 6 6 4 3 4 4 4 4 4 4 4 4 4 4 4 4 4 4 4 4 4 4 5 6 6 7 6
2 3 2 2 1 2 2 2 2 2 2 3 3 3 2 1 2 3 3 3 3 4 4 4 4 4 4 4 4 4 4 4 4 4 4 4 4 4 6 6 6 6 6
2 2 2 2 2 2 2 2 3 3 3 3 3 3 4 2 3 3 3 3 4 4 4 4 4 4 4 4 4 4 5 5 4 4 4 4 4 5 5 5 6 6 6
2 2 2 2 2 2 2 2 3 3 3 4 3 3 5 2 2 3 4 4 4 4 4 4 4 4 4 4 4 5 5 5 5 5 5 4 4 5 5 5 5 5 6
2 2 2 2 2 2 2 2 3 3 3 3 3 3 3 3 3 4 4 4 3 3 3 3 4 5 4 3 4 5 6 6 5 5 5 5 5 5 5 6 7 6 6
2 3 3 2 2 2 3 3 3 3 3 3 3 3 3 4 4 4 4 4 4 4 4 4 5 6 7 5 4 4 5 5 5 5 6 6 6 5 5 6 6 7 6
3 3 3 3 3 3 3 3 3 3 3 3 3 3 3 4 4 4 4 4 4 4 5 5 5 5 6 8 7 6 7 8 8 5 5 5 6 6 6 6 6 6 6
3 3 3 3 3 3 3 3 3 3 4 4 3 4 4 4 4 4 4 4 4 5 5 5 6 7 7 7 8 9 9 10 9 8 6 5 6 6 6 5 6 6 5
Wind_Direction
170 171 173 174 175 174 174 173 167 158 152 160 166 172 174 179 183 189 194 189 202 219 226 223 234 236 241 245 248 257 256 253 267 286 290 299 295 298 306 299 288 286 288
172 168 172 168 168 177 182 179 169 166 167 169 170 179 186 189 192 198 204 204 211 221 226 225 236 237 242 243 237 246 253 254 259 279 289 289 282 280 288 295 299 296 288
165 164 167 171 175 187 188 179 173 174 173 173 177 189 193 196 197 201 205 211 220 227 226 226 232 230 241 243 243 246 254 263 258 268 281 289 287 297 304 301 296 294 297
168 169 177 186 187 189 186 182 182 181 180 184 193 198 199 202 203 204 210 217 224 231 232 230 228 224 232 235 243 247 257 265 264 266 275 285 286 289 294 299 304 303 301
172 178 188 187 182 180 183 186 184 185 188 186 189 199 204 205 210 209 211 216 225 234 236 237 237 231 238 240 250 250 251 258 264 268 273 284 282 290 284 290 296 306 296
180 189 184 178 182 187 190 187 187 189 187 183 191 198 208 221 232 225 218 216 226 235 244 249 249 239 243 253 260 260 252 248 250 255 264 265 272 278 282 280 290 301 294
182 182 175 177 186 193 192 190 196 195 188 193 199 201 215 228 232 232 229 219 226 233 237 245 258 257 248 253 264 268 265 264 256 250 254 258 265 267 267 273 271 273 275
181 180 178 182 192 190 188 198 200 194 195 202 208 209 220 234 234 236 233 226 231 238 238 236 243 254 252 251 251 257 260 264 264 258 251 255 257 259 247 254 265 279 281
190 197 195 190 190 190 199 204 198 192 201 210 208 208 222 238 233 234 228 222 233 247 246 241 241 248 255 257 250 254 266 270 271 268 269 269 272 275 273 271 267 281 286
208 212 202 189 189 198 204 203 197 195 205 206 217 215 220 231 232 233 225 217 233 249 253 247 243 251 256 253 242 242 259 270 277 282 278 276 273 266 268 253 245 255 274
215 194 190 196 198 195 191 189 181 181 183 199 218 233 227 230 235 235 233 226 229 241 249 254 252 256 261 260 256 248 259 276 273 272 278 279 277 265 260 254 246 244 254
140 175 203 204 196 178 171 175 171 171 182 201 214 244 248 243 239 239 240 243 244 241 249 255 256 261 265 266 263 265 275 283 268 262 267 270 270 267 267 269 267 263 259
133 189 213 203 189 175 174 175 173 180 194 214 220 241 255 252 246 245 245 247 251 255 255 260 268 271 269 262 261 271 274 260 257 256 257 264 267 271 279 281 284 285 282
170 201 185 184 196 199 197 189 191 200 207 216 225 238 249 250 243 237 237 239 243 252 256 254 263 271 272 271 267 264 255 249 245 253 262 271 276 270 265 267 278 284 288
181 201 197 197 201 208 216 216 214 217 212 214 222 222 228 245 243 242 243 238 233 239 251 246 250 254 249 254 261 263 258 253 247 252 258 265 268 267 268 265 268 275 272
196 214 213 205 202 204 212 250 248 245 246 243 244 241 248 256 260 245 248 251 249 240 240 235 240 242 242 245 248 252 248 248 249 246 248 251 258 264 270 270 262 262 268
214 226 223 216 209 207 211 220 252 270 259 256 256 255 258 265 262 255 256 257 248 234 236 240 243 244 245 241 241 244 250 251 249 247 248 250 256 260 263 266 266 267 268
224 228 227 226 224 220 221 227 231 241 264 274 270 262 263 263 263 262 257 248 243 237 235 242 247 248 248 246 245 248 253 253 248 249 252 251 249 253 257 259 259 260 266
221 232 234 235 232 230 229 231 236 240 250 271 293 285 271 265 262 261 248 226 237 245 245 248 249 250 251 249 249 248 249 252 250 249 251 251 251 251 254 256 259 261 263
223 233 229 228 234 236 230 228 235 238 246 256 265 277 280 252 253 257 242 238 244 251 252 254 255 252 250 249 250 250 253 252 248 248 250 250 251 252 257 259 259 260 260
217 226 219 219 225 229 230 234 240 243 248 255 261 265 266 254 253 257 257 253 252 256 256 256 256 252 247 245 245 246 248 253 250 250 251 252 252 255 258 260 260 261 264
208 214 213 222 229 231 234 237 238 243 248 257 271 277 274 270 259 261 261 263 261 259 258 260 262 255 245 242 242 246 249 251 250 247 248 251 253 255 258 260 262 262 260
208 214 223 232 232 235 241 240 239 244 251 257 265 271 270 263 262 263 266 269 270 270 267 265 268 268 264 255 246 241 245 249 248 243 245 251 252 252 253 256 258 260 257
206 212 222 230 231 234 239 245 244 246 251 257 262 263 263 265 268 271 273 274 274 275 272 270 268 268 273 274 268 260 258 257 250 241 235 241 247 252 253 257 259 258 257
211 214 219 225 228 234 240 246 248 249 251 254 258 263 267 268 270 272 272 272 273 274 274 274 272 270 271 272 273 270 268 268 263 252 241 238 242 245 248 253 257 260 258
218 219 222 226 230 232 236 243 248 249 251 255 255 257 259 263 267 271 273 273 276 278 278 277 273 269 270 272 273 272 269 267 263 251 239 235 236 241 241 247 248 251 255